DLH9AF EDDF-EGCC

Flight info

Callsign DLH9AF
Flight time 1h 14m
Altitude 34000
Route OBOKA3W/25C OBOKA Z29 TORNU DCT BATAK DCT GALSO Q63 ERING L179 LAM UN57 WELIN T420 ELVOS
Aircraft A321/M-SDE3FGHIRWY/LB1

Departure

Time 2026-05-06 09:41
Airport Frankfurt Main Airport (EDDF)

Arrival

Time 2026-05-06 10:55
Airport Manchester Airport (EGCC)
Time Latitude Longitude Altitude Speed Heading
2026-05-06 09:04 50.04612 8.57198 373 ft 0 kts
2026-05-06 09:28 50.04611 8.57198 373 ft 0 kts
2026-05-06 09:30 50.04602 8.57197 373 ft 2 kts
2026-05-06 09:30 50.04586 8.57196 373 ft 2 kts
2026-05-06 09:31 50.04569 8.57194 372 ft 2 kts 15°
2026-05-06 09:31 50.04554 8.57185 372 ft 2 kts 29°
2026-05-06 09:31 50.04541 8.57170 372 ft 2 kts 44°
2026-05-06 09:31 50.04530 8.57151 372 ft 2 kts 59°
2026-05-06 09:32 50.04525 8.57135 371 ft 0 kts 69°
2026-05-06 09:32 50.04523 8.57126 371 ft 0 kts 70°
2026-05-06 09:34 50.04523 8.57127 371 ft 0 kts 70°
2026-05-06 09:34 50.04530 8.57156 372 ft 4 kts 70°
2026-05-06 09:34 50.04543 8.57210 372 ft 5 kts 69°
2026-05-06 09:35 50.04558 8.57273 372 ft 5 kts 70°
2026-05-06 09:35 50.04574 8.57342 372 ft 6 kts 70°
2026-05-06 09:35 50.04593 8.57421 371 ft 5 kts 73°
2026-05-06 09:35 50.04589 8.57481 370 ft 5 kts 121°
2026-05-06 09:36 50.04559 8.57516 369 ft 5 kts 156°
2026-05-06 09:36 50.04519 8.57545 368 ft 7 kts 153°
2026-05-06 09:36 50.04466 8.57589 367 ft 9 kts 150°
2026-05-06 09:36 50.04428 8.57623 366 ft 3 kts 151°
2026-05-06 09:37 50.04395 8.57649 366 ft 7 kts 155°
2026-05-06 09:37 50.04333 8.57688 365 ft 10 kts 162°
2026-05-06 09:37 50.04263 8.57647 363 ft 12 kts 241°
2026-05-06 09:37 50.04252 8.57607 363 ft 0 kts 250°
2026-05-06 09:40 50.04240 8.57558 363 ft 26 kts 250°
2026-05-06 09:40 50.03759 8.55535 346 ft 159 kts 251°
2026-05-06 09:41 50.03352 8.53708 776 ft 174 kts 249°
2026-05-06 09:41 50.02908 8.51858 1608 ft 168 kts 249°
2026-05-06 09:41 50.02386 8.50105 2054 ft 172 kts 230°
2026-05-06 09:41 50.01221 8.49147 2334 ft 186 kts 196°
2026-05-06 09:42 49.99792 8.48659 2657 ft 201 kts 194°
2026-05-06 09:42 49.98266 8.48154 3093 ft 210 kts 194°
2026-05-06 09:42 49.96697 8.47556 3684 ft 211 kts 199°
2026-05-06 09:42 49.95172 8.46751 4225 ft 218 kts 202°
2026-05-06 09:43 49.93538 8.45893 4504 ft 240 kts 200°
2026-05-06 09:43 49.91828 8.44865 5213 ft 241 kts 216°
2026-05-06 09:43 49.90621 8.42954 5988 ft 239 kts 238°
2026-05-06 09:43 49.89733 8.40655 6748 ft 241 kts 240°
2026-05-06 09:44 49.88893 8.38191 7544 ft 243 kts 250°
2026-05-06 09:44 49.88561 8.35376 8289 ft 250 kts 268°
2026-05-06 09:44 49.88684 8.32306 8735 ft 268 kts 272°
2026-05-06 09:44 49.88893 8.29057 9406 ft 277 kts 275°
2026-05-06 09:45 49.89513 8.25840 10177 ft 285 kts 291°
2026-05-06 09:45 49.90692 8.22887 10610 ft 304 kts 302°
2026-05-06 09:45 49.92101 8.19973 10936 ft 323 kts 304°
2026-05-06 09:45 49.93729 8.16871 11269 ft 342 kts 308°
2026-05-06 09:46 49.95625 8.13883 11774 ft 355 kts 314°
2026-05-06 09:46 49.97722 8.11041 12522 ft 359 kts 316°
2026-05-06 09:46 49.99842 8.08239 13238 ft 362 kts 316°
2026-05-06 09:46 50.01987 8.05402 13932 ft 365 kts 316°
2026-05-06 09:47 50.04142 8.02532 14600 ft 369 kts 316°
2026-05-06 09:47 50.06315 7.99625 15272 ft 373 kts 316°
2026-05-06 09:47 50.08503 7.96690 15910 ft 377 kts 316°
2026-05-06 09:47 50.10712 7.93722 16559 ft 380 kts 316°
2026-05-06 09:48 50.12916 7.90758 17179 ft 383 kts 316°
2026-05-06 09:48 50.15095 7.87823 17774 ft 386 kts 316°
2026-05-06 09:48 50.17312 7.84831 18350 ft 389 kts 316°
2026-05-06 09:48 50.19566 7.81785 18940 ft 392 kts 316°
2026-05-06 09:49 50.21793 7.78784 19514 ft 395 kts 317°
2026-05-06 09:49 50.24342 7.76157 20054 ft 402 kts 329°
2026-05-06 09:49 50.27034 7.73973 20632 ft 405 kts 330°
2026-05-06 09:49 50.29832 7.71753 21156 ft 408 kts 330°
2026-05-06 09:50 50.32634 7.69479 21685 ft 410 kts 330°
2026-05-06 09:50 50.35471 7.67126 22224 ft 413 kts 329°
2026-05-06 09:50 50.38265 7.64774 22703 ft 416 kts 329°
2026-05-06 09:50 50.41042 7.62418 23146 ft 419 kts 329°
2026-05-06 09:51 50.43903 7.59981 23600 ft 422 kts 329°
2026-05-06 09:51 50.46717 7.57577 24002 ft 426 kts 329°
2026-05-06 09:51 50.49575 7.55131 24404 ft 429 kts 329°
2026-05-06 09:51 50.52490 7.52631 24776 ft 433 kts 330°
2026-05-06 09:52 50.55451 7.50085 25135 ft 437 kts 330°
2026-05-06 09:52 50.58398 7.47552 25485 ft 441 kts 330°
2026-05-06 09:52 50.61452 7.44929 25857 ft 444 kts 330°
2026-05-06 09:52 50.64408 7.42382 26235 ft 447 kts 331°
2026-05-06 09:53 50.67487 7.39724 26597 ft 450 kts 331°
2026-05-06 09:53 50.70418 7.37173 26918 ft 453 kts 332°
2026-05-06 09:53 50.73160 7.34218 27221 ft 456 kts 320°
2026-05-06 09:53 50.75451 7.30363 27569 ft 457 kts 306°
2026-05-06 09:54 50.77227 7.25718 27934 ft 459 kts 298°
2026-05-06 09:54 50.78851 7.20670 28279 ft 461 kts 297°
2026-05-06 09:54 50.80451 7.15599 28649 ft 462 kts 297°
2026-05-06 09:54 50.82048 7.10571 29137 ft 460 kts 298°
2026-05-06 09:55 50.83666 7.05530 29667 ft 457 kts 299°
2026-05-06 09:55 50.85278 7.00537 30123 ft 456 kts 299°
2026-05-06 09:55 50.86897 6.95527 30564 ft 455 kts 299°
2026-05-06 09:55 50.88462 6.90673 31003 ft 453 kts 299°
2026-05-06 09:56 50.90041 6.85772 31376 ft 452 kts 298°
2026-05-06 09:56 50.91625 6.80850 31733 ft 451 kts 298°
2026-05-06 09:56 50.93213 6.75896 32033 ft 451 kts 298°
2026-05-06 09:56 50.94814 6.70888 32361 ft 450 kts 297°
2026-05-06 09:57 50.96385 6.65960 32714 ft 449 kts 297°
2026-05-06 09:57 50.97944 6.61060 33004 ft 447 kts 297°
2026-05-06 09:57 50.99506 6.56140 33313 ft 445 kts 297°
2026-05-06 09:57 51.01086 6.51155 33600 ft 444 kts 296°
2026-05-06 09:58 51.02621 6.46300 33890 ft 442 kts 296°
2026-05-06 09:58 51.04166 6.41405 34184 ft 440 kts 296°
2026-05-06 09:58 51.05712 6.36495 34457 ft 439 kts 296°
2026-05-06 09:58 51.07217 6.31706 34682 ft 440 kts 295°
2026-05-06 09:59 51.08755 6.26808 34860 ft 440 kts 295°
2026-05-06 09:59 51.10272 6.21957 35039 ft 441 kts 295°
2026-05-06 09:59 51.11781 6.17114 35204 ft 442 kts 294°
2026-05-06 09:59 51.13179 6.12117 35355 ft 443 kts 291°
2026-05-06 10:00 51.14358 6.07045 35541 ft 443 kts 287°
2026-05-06 10:00 51.15346 6.01755 35705 ft 443 kts 284°
2026-05-06 10:00 51.16215 5.96463 35809 ft 444 kts 283°
2026-05-06 10:00 51.17148 5.91194 35837 ft 445 kts 286°
2026-05-06 10:01 51.19595 5.80954 35849 ft 446 kts 293°
2026-05-06 10:01 51.22863 5.71131 35872 ft 447 kts 300°
2026-05-06 10:02 51.26450 5.61642 35853 ft 446 kts 300°
2026-05-06 10:02 51.30048 5.52103 35860 ft 446 kts 300°
2026-05-06 10:03 51.33587 5.42654 35873 ft 446 kts 300°
2026-05-06 10:03 51.37141 5.33123 35866 ft 446 kts 299°
2026-05-06 10:04 51.40660 5.23640 35858 ft 446 kts 299°
2026-05-06 10:04 51.44180 5.14124 35860 ft 446 kts 299°
2026-05-06 10:05 51.47665 5.04670 35870 ft 446 kts 299°
2026-05-06 10:05 51.51172 4.95115 35864 ft 445 kts 299°
2026-05-06 10:06 51.54465 4.85372 35875 ft 445 kts 294°
2026-05-06 10:06 51.56964 4.75120 35874 ft 444 kts 287°
2026-05-06 10:07 51.58625 4.64407 35871 ft 443 kts 279°
2026-05-06 10:07 51.59776 4.53510 35877 ft 444 kts 279°
2026-05-06 10:08 51.60893 4.42692 35874 ft 444 kts 279°
2026-05-06 10:08 51.62013 4.31848 35874 ft 444 kts 278°
2026-05-06 10:09 51.63126 4.21009 35880 ft 444 kts 278°
2026-05-06 10:09 51.64242 4.10040 35882 ft 444 kts 278°
2026-05-06 10:10 51.65343 3.99128 35882 ft 444 kts 278°
2026-05-06 10:10 51.66441 3.88119 35885 ft 444 kts 278°
2026-05-06 10:11 51.67529 3.77121 35888 ft 444 kts 278°
2026-05-06 10:11 51.68608 3.66100 35890 ft 444 kts 278°
2026-05-06 10:12 51.69633 3.55535 35898 ft 444 kts 278°
2026-05-06 10:12 51.70693 3.44508 35906 ft 443 kts 278°
2026-05-06 10:13 51.71703 3.33864 35904 ft 443 kts 278°
2026-05-06 10:13 51.72532 3.23425 35910 ft 442 kts 274°
2026-05-06 10:14 51.72628 3.12506 35916 ft 442 kts 266°
2026-05-06 10:14 51.71910 3.01539 35924 ft 441 kts 262°
2026-05-06 10:15 51.71235 2.91009 35910 ft 442 kts 271°
2026-05-06 10:15 51.72455 2.80466 35911 ft 443 kts 289°
2026-05-06 10:16 51.75073 2.70255 35916 ft 443 kts 292°
2026-05-06 10:16 51.77756 2.60041 35918 ft 443 kts 292°
2026-05-06 10:17 51.80389 2.49867 35922 ft 443 kts 292°
2026-05-06 10:17 51.82898 2.40084 35929 ft 443 kts 292°
2026-05-06 10:18 51.85425 2.30175 35928 ft 443 kts 291°
2026-05-06 10:18 51.88005 2.20010 35926 ft 442 kts 291°
2026-05-06 10:19 51.90530 2.10015 35927 ft 441 kts 291°
2026-05-06 10:19 51.93068 1.99922 35926 ft 441 kts 291°
2026-05-06 10:20 51.95570 1.89926 35932 ft 442 kts 291°
2026-05-06 10:20 51.98101 1.79768 35939 ft 441 kts 291°
2026-05-06 10:21 52.00650 1.69490 35940 ft 441 kts 291°
2026-05-06 10:21 52.03225 1.59058 35925 ft 440 kts 291°
2026-05-06 10:22 52.05794 1.48598 35932 ft 440 kts 291°
2026-05-06 10:22 52.08325 1.38248 35944 ft 439 kts 291°
2026-05-06 10:23 52.10810 1.28036 35951 ft 439 kts 291°
2026-05-06 10:23 52.13317 1.17689 35955 ft 439 kts 291°
2026-05-06 10:24 52.15778 1.07482 35730 ft 438 kts 291°
2026-05-06 10:24 52.18271 0.97094 35884 ft 440 kts 291°
2026-05-06 10:25 52.20632 0.87212 35934 ft 439 kts 291°
2026-05-06 10:25 52.23031 0.77119 35950 ft 438 kts 291°
2026-05-06 10:26 52.25377 0.67207 35960 ft 438 kts 291°
2026-05-06 10:26 52.27782 0.56999 35967 ft 438 kts 290°
2026-05-06 10:27 52.30152 0.46886 35972 ft 437 kts 291°
2026-05-06 10:27 52.31331 0.41839 36265 ft 437 kts 290°
2026-05-06 10:27 52.32499 0.36830 36112 ft 435 kts 291°
2026-05-06 10:28 52.34841 0.26745 36012 ft 435 kts 290°
2026-05-06 10:28 52.37211 0.16495 35992 ft 434 kts 290°
2026-05-06 10:29 52.39534 0.06396 35762 ft 433 kts 290°
2026-05-06 10:29 52.40709 0.01273 35535 ft 430 kts 290°
2026-05-06 10:29 52.41833 -0.03650 35312 ft 428 kts 290°
2026-05-06 10:30 52.42938 -0.08495 34949 ft 427 kts 290°
2026-05-06 10:30 52.44045 -0.13358 34312 ft 426 kts 290°
2026-05-06 10:30 52.45149 -0.18219 33596 ft 428 kts 290°
2026-05-06 10:30 52.46268 -0.23159 32853 ft 429 kts 290°
2026-05-06 10:31 52.47403 -0.28179 32076 ft 431 kts 290°
2026-05-06 10:31 52.48524 -0.33152 31301 ft 432 kts 290°
2026-05-06 10:31 52.49663 -0.38218 30457 ft 434 kts 290°
2026-05-06 10:31 52.50785 -0.43210 29635 ft 435 kts 290°
2026-05-06 10:32 52.51884 -0.48118 28828 ft 435 kts 290°
2026-05-06 10:32 52.52973 -0.52990 28197 ft 431 kts 290°
2026-05-06 10:32 52.54022 -0.57698 27702 ft 425 kts 290°
2026-05-06 10:32 52.55081 -0.62457 27183 ft 419 kts 290°
2026-05-06 10:33 52.56146 -0.67257 26643 ft 413 kts 289°
2026-05-06 10:33 52.57209 -0.72058 26099 ft 408 kts 289°
2026-05-06 10:33 52.58245 -0.76753 25571 ft 403 kts 289°
2026-05-06 10:33 52.59265 -0.81386 25045 ft 399 kts 289°
2026-05-06 10:34 52.60258 -0.85901 24535 ft 394 kts 289°
2026-05-06 10:34 52.61230 -0.90330 24023 ft 390 kts 289°
2026-05-06 10:34 52.62188 -0.94708 23523 ft 387 kts 289°
2026-05-06 10:34 52.63143 -0.99080 23019 ft 383 kts 289°
2026-05-06 10:35 52.64088 -1.03418 22526 ft 380 kts 289°
2026-05-06 10:35 52.65036 -1.07776 22018 ft 377 kts 289°
2026-05-06 10:35 52.65969 -1.12074 21518 ft 375 kts 289°
2026-05-06 10:35 52.66911 -1.16422 21007 ft 372 kts 289°
2026-05-06 10:36 52.67852 -1.20784 20615 ft 365 kts 289°
2026-05-06 10:36 52.68766 -1.25019 20274 ft 357 kts 290°
2026-05-06 10:36 52.69792 -1.28889 20022 ft 347 kts 302°
2026-05-06 10:36 52.71370 -1.31951 20015 ft 333 kts 318°
2026-05-06 10:37 52.73347 -1.34268 19748 ft 328 kts 327°
2026-05-06 10:37 52.75444 -1.36381 19406 ft 323 kts 328°
2026-05-06 10:37 52.77483 -1.38408 19054 ft 319 kts 328°
2026-05-06 10:37 52.79553 -1.40482 18613 ft 314 kts 328°
2026-05-06 10:38 52.81547 -1.42499 18057 ft 312 kts 328°
2026-05-06 10:38 52.83555 -1.44544 17481 ft 311 kts 328°
2026-05-06 10:38 52.85568 -1.46600 17001 ft 307 kts 328°
2026-05-06 10:38 52.87524 -1.48603 16572 ft 305 kts 328°
2026-05-06 10:39 52.89508 -1.50638 16144 ft 304 kts 328°
2026-05-06 10:39 52.91409 -1.52592 15735 ft 302 kts 328°
2026-05-06 10:39 52.93345 -1.54582 15325 ft 301 kts 328°
2026-05-06 10:39 52.95252 -1.56546 14922 ft 299 kts 328°
2026-05-06 10:40 52.97157 -1.58508 14521 ft 297 kts 328°
2026-05-06 10:40 52.99026 -1.60438 14124 ft 296 kts 328°
2026-05-06 10:40 53.00872 -1.62346 13734 ft 294 kts 328°
2026-05-06 10:40 53.02756 -1.64295 13341 ft 293 kts 328°
2026-05-06 10:41 53.04597 -1.66299 12933 ft 292 kts 322°
2026-05-06 10:41 53.06260 -1.68731 12524 ft 290 kts 314°
2026-05-06 10:41 53.07718 -1.71445 12127 ft 289 kts 311°
2026-05-06 10:41 53.09119 -1.74180 11734 ft 288 kts 310°
2026-05-06 10:42 53.10532 -1.76947 11334 ft 288 kts 311°
2026-05-06 10:42 53.11941 -1.79695 10900 ft 288 kts 311°
2026-05-06 10:42 53.13353 -1.82442 10481 ft 288 kts 311°
2026-05-06 10:42 53.14776 -1.85213 10084 ft 287 kts 311°
2026-05-06 10:43 53.16163 -1.87914 9816 ft 282 kts 311°
2026-05-06 10:43 53.17518 -1.90558 9441 ft 273 kts 311°
2026-05-06 10:43 53.18844 -1.93148 8970 ft 267 kts 311°
2026-05-06 10:44 53.21343 -1.98033 8214 ft 252 kts 312°
2026-05-06 10:44 53.22505 -2.00359 7927 ft 248 kts 307°
2026-05-06 10:44 53.23168 -2.03180 7705 ft 245 kts 276°
2026-05-06 10:44 53.22889 -2.06135 7437 ft 245 kts 254°
2026-05-06 10:45 53.22254 -2.09014 7124 ft 243 kts 251°
2026-05-06 10:45 53.21571 -2.11846 6947 ft 236 kts 250°
2026-05-06 10:45 53.20853 -2.14529 6650 ft 235 kts 244°
2026-05-06 10:45 53.19978 -2.17044 6337 ft 235 kts 240°
2026-05-06 10:46 53.19058 -2.19557 6033 ft 235 kts 240°
2026-05-06 10:46 53.18146 -2.22039 5735 ft 234 kts 240°
2026-05-06 10:46 53.17229 -2.24536 5431 ft 233 kts 240°
2026-05-06 10:46 53.16325 -2.27002 5129 ft 232 kts 240°
2026-05-06 10:47 53.15419 -2.29471 4826 ft 231 kts 240°
2026-05-06 10:47 53.14530 -2.31895 4538 ft 231 kts 240°
2026-05-06 10:47 53.13672 -2.34249 4263 ft 230 kts 240°
2026-05-06 10:47 53.12782 -2.36705 3963 ft 229 kts 240°
2026-05-06 10:48 53.11878 -2.39213 3700 ft 228 kts 240°
2026-05-06 10:48 53.11067 -2.41655 3559 ft 221 kts 253°
2026-05-06 10:48 53.11106 -2.44293 3373 ft 207 kts 302°
2026-05-06 10:48 53.12171 -2.46013 3238 ft 191 kts 337°
2026-05-06 10:49 53.13464 -2.46957 3101 ft 183 kts 340°
2026-05-06 10:49 53.14720 -2.47877 3027 ft 173 kts 339°
2026-05-06 10:49 53.15876 -2.48800 2953 ft 161 kts 338°
2026-05-06 10:49 53.16956 -2.49709 2955 ft 161 kts 337°
2026-05-06 10:50 53.18006 -2.50617 2957 ft 161 kts 336°
2026-05-06 10:50 53.19078 -2.51561 2961 ft 161 kts 336°
2026-05-06 10:50 53.20134 -2.52503 2943 ft 152 kts 336°
2026-05-06 10:50 53.21203 -2.53232 2949 ft 149 kts 357°
2026-05-06 10:51 53.22241 -2.53012 2965 ft 146 kts 25°
2026-05-06 10:51 53.23109 -2.51944 2966 ft 143 kts 49°
2026-05-06 10:51 53.23793 -2.50571 2968 ft 141 kts 51°
2026-05-06 10:51 53.24479 -2.49168 2918 ft 141 kts 51°
2026-05-06 10:52 53.25159 -2.47759 2741 ft 139 kts 51°
2026-05-06 10:52 53.25824 -2.46378 2527 ft 140 kts 51°
2026-05-06 10:52 53.26495 -2.44981 2309 ft 139 kts 52°
2026-05-06 10:52 53.27145 -2.43626 2100 ft 139 kts 51°
2026-05-06 10:53 53.27819 -2.42223 1886 ft 138 kts 51°
2026-05-06 10:53 53.28479 -2.40854 1682 ft 138 kts 51°
2026-05-06 10:53 53.29143 -2.39474 1479 ft 138 kts 51°
2026-05-06 10:53 53.29785 -2.38148 1276 ft 137 kts 52°
2026-05-06 10:54 53.30432 -2.36793 1062 ft 137 kts 52°
2026-05-06 10:54 53.31063 -2.35488 892 ft 136 kts 52°
2026-05-06 10:54 53.31694 -2.34150 691 ft 136 kts 51°
2026-05-06 10:54 53.32350 -2.32831 509 ft 136 kts 51°
2026-05-06 10:55 53.32998 -2.31486 306 ft 136 kts 51°
2026-05-06 10:55 53.33623 -2.30177 195 ft 128 kts 52°
2026-05-06 10:55 53.34038 -2.29323 199 ft 56 kts 51°
2026-05-06 10:55 53.34263 -2.28869 202 ft 28 kts 52°
2026-05-06 10:56 53.34387 -2.28646 210 ft 23 kts 37°
2026-05-06 10:56 53.34522 -2.28525 216 ft 19 kts 20°
2026-05-06 10:56 53.34645 -2.28445 221 ft 14 kts 26°
2026-05-06 10:56 53.34707 -2.28391 223 ft 8 kts 35°
2026-05-06 10:57 53.34748 -2.28322 225 ft 7 kts 49°
2026-05-06 10:57 53.34782 -2.28253 226 ft 6 kts 51°
2026-05-06 10:57 53.34824 -2.28167 228 ft 11 kts 51°
2026-05-06 10:57 53.34887 -2.28038 230 ft 14 kts 51°
2026-05-06 10:58 53.34961 -2.27984 233 ft 10 kts 343°
2026-05-06 10:58 53.35024 -2.28055 234 ft 11 kts 317°
2026-05-06 10:58 53.35094 -2.28151 234 ft 12 kts 324°
2026-05-06 10:58 53.35182 -2.28201 234 ft 13 kts
2026-05-06 10:59 53.35278 -2.28185 235 ft 13 kts
2026-05-06 10:59 53.35380 -2.28165 235 ft 14 kts
2026-05-06 10:59 53.35486 -2.28127 236 ft 14 kts 26°
2026-05-06 10:59 53.35564 -2.28026 238 ft 12 kts 47°
2026-05-06 11:00 53.35628 -2.27897 238 ft 13 kts 51°
2026-05-06 11:00 53.35692 -2.27762 240 ft 13 kts 52°
2026-05-06 11:00 53.35764 -2.27670 242 ft 12 kts 15°
2026-05-06 11:00 53.35857 -2.27652 242 ft 12 kts
2026-05-06 11:01 53.35954 -2.27637 242 ft 13 kts
2026-05-06 11:01 53.36044 -2.27619 244 ft 6 kts
2026-05-06 11:01 53.36071 -2.27656 243 ft 7 kts 292°
2026-05-06 11:01 53.36093 -2.27724 241 ft 6 kts 334°
2026-05-06 11:02 53.36118 -2.27714 242 ft 1 kts 31°
2026-05-06 11:02 53.36131 -2.27706 243 ft 2 kts 18°
2026-05-06 11:02 53.36146 -2.27702 243 ft 1 kts
2026-05-06 11:02 53.36158 -2.27699 243 ft 1 kts
2026-05-06 11:03 53.36161 -2.27698 244 ft 0 kts 11°